Location: Pedholt
(56.0260°N, 10.2097°E)
Time: 03:58:15
(UTC+00:00)

SR - Pass Details

Date: 02 August 2021
Orbit: 581 x 874 km, 66.7° (Epoch: 21 September)

Event Time Altitude Azimuth Distance (km) Brightness Sun altitude
Rises 11:31:22 0° 311° (NW) 3,248 ? 51.6°
Reaches altitude 10° 11:34:01 10° 319° (NW) 2,269 ? 51.6°
Maximum altitude 11:38:51 39° 28° (NNE) 1,055 ? 51.5°
Drops below altitude 10° 11:43:17 10° 97° (E) 2,082 ? 51.5°
Sets 11:45:37 0° 106° (ESE) 2,948 ? 51.4°
